Погода в Хетауде

Непал     27°24′16″N   85°00′53″E
темп.,
°C
ветер,
м/с
пор.,
м/с
влажн.,
%
обл.,
%
осадки,
мм/ч
давл.,
гПа
погр.,
м
5 марта, пт
пт523:45+15св22310 0.0 101424
02:45+15св33340 0.0 101328
05:45+14св23340 0.0 101226
08:45+23ююв22240 0.0 1013612
11:45+26ююз46170 0.0 10122502
14:45+25зюз55180 0.0 10092825
17:45+20зсз12260 0.0 100923
20:45+17св223023 0.0 101225
6 марта, сб
сб623:45+16св332512 0.0 101328
02:45+15св33260 0.0 101131
05:45+15св33250 0.0 101327
08:45+22юв34230 0.0 1015597
11:45+26ююв44170 0.0 10131760
14:45+26ю44170 0.0 10102244
17:45+19зюз12250 0.0 101123
20:45+17св33260 0.0 101329
7 марта, вс
вс723:45+16св33280 0.0 101329
02:45+16св22300 0.0 101224
05:45+15св22300 0.0 101325
08:45+24юв34180 0.0 1015937
11:45+27ююв44150 0.0 10141817
14:45+27ю33160 0.0 10112577
17:45+21ююз12270 0.0 101224
20:45+17св22290 0.0 101525
8 марта, пн
пн823:45+17св33290 0.0 101627
02:45+17св33290 0.0 101430
05:45+16св22300 0.0 101523
08:45+24ююв34210 0.0 10181054
11:45+28ю33180 0.0 10162260
14:45+29юз35170 0.0 10132776
17:45+23зюз12280 0.0 101223
20:45+19св22321 0.0 101524
9 марта, вт
вт923:45+18ссв22321 0.0 101527
02:45+19св33310 0.0 101433
05:45+16в22330 0.0 101523
08:45+25юв23260 0.0 1017618
11:45+29юз35190 0.0 10152673
14:45+30зюз45160 0.0 10113348
17:45+24юз12271 0.0 101126
20:45+20св22300 0.0 101427